Theta_e
311 312 311 311 311 311 310 310 310 310 310 310 311 311 311 312 312 314 321 328 321 322 325 330 331 334 336 339 345 347 348 346 345 346 347 348 347 347 345 343 341 340 340
311 311 310 310 310 310 309 309 308 308 308 309 309 310 310 311 311 313 315 318 327 323 322 323 326 330 333 335 338 345 347 347 347 346 345 346 347 347 347 346 342 341 339
311 311 311 310 309 310 309 308 308 308 308 308 308 308 309 309 311 310 313 315 317 326 325 322 321 324 329 333 336 338 345 348 347 347 346 344 345 346 346 346 344 341 341
312 311 311 310 310 310 310 308 307 307 307 307 307 308 307 309 308 309 311 313 315 314 321 327 323 323 325 330 334 337 339 346 347 346 347 346 345 346 347 346 345 343 341
310 311 310 310 310 310 309 308 307 306 305 306 306 307 307 308 309 309 309 312 314 316 316 322 323 322 323 326 329 334 336 338 346 347 346 346 345 345 348 346 345 344 342
310 310 310 310 309 309 308 308 306 307 306 306 304 304 307 308 309 309 309 309 312 316 317 322 321 319 325 322 321 326 332 336 337 347 347 346 345 342 344 346 346 345 345
309 309 309 309 309 308 307 307 306 305 305 306 304 304 305 305 306 308 309 310 312 313 315 315 318 316 316 326 321 320 325 331 336 338 345 345 345 344 341 346 346 345 345
308 308 308 308 307 307 306 306 307 304 304 305 301 302 298 301 305 307 308 306 305 309 309 311 312 314 315 316 318 323 323 322 325 333 339 343 344 344 344 343 347 344 345
308 307 307 306 306 306 306 306 306 306 302 303 303 300 296 295 299 302 303 305 305 306 306 307 308 309 310 311 314 316 323 322 321 324 328 335 342 343 343 343 344 346 345
307 307 306 306 305 305 305 305 304 303 303 300 302 301 301 300 296 295 301 303 303 303 305 306 306 306 308 309 314 318 320 320 317 317 320 325 332 341 342 342 343 344 346
308 307 306 305 305 305 304 303 302 301 302 301 301 300 300 300 300 297 294 298 301 303 305 305 306 306 307 308 309 312 318 321 320 316 316 318 325 330 339 341 341 342 344
307 306 306 305 305 304 302 303 302 301 301 300 301 300 299 298 297 297 295 296 297 300 303 304 305 305 306 307 309 313 315 316 317 315 315 316 318 324 330 338 340 341 342
304 305 304 303 303 304 303 303 302 301 300 299 299 299 300 299 299 298 297 295 295 298 300 302 303 304 305 306 307 311 312 314 316 317 316 315 316 319 323 329 336 339 341
303 304 303 302 301 301 301 301 300 300 300 299 300 299 299 300 300 300 298 296 293 295 298 298 302 303 304 304 307 311 306 312 314 316 316 316 317 316 320 324 329 334 338
302 302 301 300 300 299 299 299 299 298 299 299 299 299 299 300 300 300 300 298 295 291 292 297 298 302 303 304 306 304 304 309 313 313 315 316 317 314 316 321 324 329 334
301 300 299 299 299 298 298 298 299 299 298 299 299 299 299 299 298 298 297 297 295 292 289 295 297 299 301 302 305 304 304 309 309 311 315 315 317 314 315 318 322 325 329
299 298 298 298 297 297 297 297 297 298 298 298 297 297 296 297 296 296 296 295 294 293 290 293 296 298 298 299 301 303 304 303 304 311 314 314 314 315 315 318 320 323 325
298 297 296 296 296 296 297 297 297 297 297 296 296 296 296 296 295 296 296 295 295 296 293 291 294 295 295 298 299 300 301 302 303 308 312 314 313 314 314 315 318 321 322
296 296 296 295 295 296 297 297 297 297 296 296 296 296 296 295 295 296 296 295 296 296 296 294 293 295 296 296 296 298 299 301 302 307 309 310 312 312 312 313 315 319 319
295 295 295 296 297 297 297 296 296 296 296 297 297 297 297 296 295 295 295 296 296 294 294 293 293 293 295 296 296 294 295 299 300 301 305 308 310 310 311 312 314 318 317
295 295 295 296 296 296 296 296 297 297 297 297 298 298 298 300 303 301 297 296 295 294 294 293 292 293 294 294 293 295 294 297 299 301 302 303 304 305 306 313 311 315 317
295 295 295 295 293 295 298 299 299 297 298 298 298 299 299 301 302 304 305 305 303 295 293 293 292 292 294 295 296 295 295 295 294 301 300 301 304 304 307 309 314 314 315
294 294 294 293 293 294 299 300 301 298 298 298 299 299 299 300 301 299 302 304 304 305 305 296 293 294 294 297 296 295 295 295 295 299 299 298 303 302 306 309 313 314 314
294 293 293 293 294 295 299 300 301 298 298 298 298 298 298 298 299 299 298 298 298 298 299 300 299 297 297 299 298 297 297 297 298 299 300 296 301 302 305 307 312 314 315
291 292 293 293 293 294 298 300 299 297 297 297 297 299 297 297 301 303 299 299 298 298 302 304 304 303 303 302 300 297 295 295 294 296 300 299 300 301 303 305 311 312 313
291 292 292 293 295 294 297 299 299 297 296 295 296 296 297 298 302 302 299 299 298 297 297 297 299 300 302 301 303 299 297 294 295 295 299 299 299 301 299 305 309 311 313
Wind_Speed
6 5 5 6 6 6 7 8 8 8 9 10 10 11 11 11 10 6 5 3 2 6 11 12 11 10 10 11 11 11 9 9 9 8 9 8 12 13 12 11 10 10 10
5 5 6 6 6 7 7 8 9 9 9 10 10 11 11 10 10 9 6 6 8 7 10 13 13 12 12 12 12 12 12 11 10 9 9 7 10 14 13 12 12 12 12
6 6 5 6 7 7 9 8 9 9 9 9 11 10 10 11 10 11 8 6 8 7 12 10 13 15 14 13 13 13 12 13 13 11 10 10 10 12 15 15 15 14 14
5 5 5 5 6 6 6 7 7 8 8 9 10 9 9 10 12 12 9 8 6 7 6 8 13 11 15 16 15 14 13 12 15 15 12 11 10 9 15 17 17 16 16
4 3 4 4 6 5 6 6 7 8 8 8 9 9 9 9 10 10 12 10 9 7 5 9 7 8 12 14 15 15 15 15 14 16 16 13 12 12 13 17 19 19 18
2 4 3 4 5 5 6 6 8 8 9 9 10 11 10 9 9 9 11 9 8 7 6 6 6 7 9 10 9 13 16 16 17 16 17 17 16 15 14 17 19 21 19
2 3 3 5 6 6 7 8 8 10 8 9 8 8 9 14 13 8 9 7 8 7 8 8 6 6 6 9 11 13 13 14 17 19 19 20 19 17 17 16 18 21 21
4 4 5 6 7 6 8 9 8 7 8 8 9 9 8 9 9 7 8 9 13 8 9 10 10 9 7 6 7 7 8 11 15 17 19 22 21 21 18 18 18 22 22
5 5 6 7 8 7 7 8 8 8 8 8 11 7 7 5 10 9 11 11 12 8 10 11 11 11 11 9 8 10 13 13 10 12 15 19 21 23 22 19 18 20 22
6 7 7 8 9 8 9 8 8 9 9 9 8 9 12 12 11 10 9 10 12 13 13 10 11 12 11 9 11 10 9 10 10 12 14 15 19 22 24 22 20 19 21
8 7 8 9 9 8 10 11 12 12 9 10 9 8 11 9 12 12 13 10 10 9 10 10 10 9 10 10 9 10 14 11 9 11 15 16 16 19 23 25 24 21 19
6 8 9 9 10 10 11 10 11 13 12 12 10 10 10 10 10 11 12 13 13 11 10 10 9 9 9 8 11 16 18 18 13 13 14 16 17 16 20 24 25 24 22
7 9 10 10 9 10 10 11 11 12 13 12 13 10 10 10 10 10 11 12 12 11 10 10 10 10 9 9 9 14 17 19 20 18 19 19 18 18 17 21 22 25 24
8 10 11 12 13 14 12 12 10 10 12 11 14 12 11 10 10 9 10 11 13 12 11 14 9 9 10 9 12 18 12 20 20 19 19 19 17 18 17 17 20 21 22
9 12 13 14 14 15 14 14 10 13 13 13 13 13 12 9 9 9 10 9 10 13 13 10 10 11 10 9 9 9 11 17 23 23 20 21 19 18 18 18 17 19 19
12 13 13 14 14 15 15 14 12 13 14 11 10 14 13 10 10 9 8 8 8 10 16 10 10 13 13 11 12 11 11 17 22 22 18 21 16 15 16 17 16 15 15
14 14 15 14 15 15 16 15 16 16 16 15 14 12 13 12 10 9 9 9 10 10 14 10 11 13 17 15 14 11 11 11 11 22 20 16 13 14 16 15 16 16 15
14 15 15 16 16 16 16 16 17 16 15 14 14 14 14 10 15 14 11 13 12 12 12 16 11 9 14 16 16 14 10 11 11 17 22 20 20 17 15 16 16 17 15
15 16 16 16 16 16 16 16 15 14 14 15 13 14 16 15 15 12 14 12 12 12 13 13 11 9 9 10 14 14 13 12 11 18 21 19 14 14 17 17 16 16 15
16 16 16 17 16 16 15 14 13 14 14 14 15 15 16 17 18 17 15 16 15 13 14 12 11 11 9 10 10 9 10 11 11 12 16 18 16 19 23 21 19 16 13
15 16 16 16 15 14 10 13 13 14 15 16 17 18 18 23 31 27 15 17 18 15 13 13 12 11 11 10 11 8 11 10 11 9 8 8 8 9 10 19 18 17 14
16 16 16 15 13 11 21 26 23 15 16 16 16 16 16 24 24 31 32 34 26 15 19 14 13 14 16 13 10 10 9 9 9 9 9 8 7 7 8 10 18 17 19
16 16 15 12 13 15 24 27 27 15 14 15 16 15 15 13 21 17 24 31 31 33 30 17 17 15 16 15 12 11 11 10 9 7 7 8 7 8 8 9 15 17 19
15 15 14 14 13 13 26 26 27 15 13 16 16 16 17 17 17 21 20 20 19 18 16 11 10 14 15 8 8 9 10 9 9 8 8 9 8 7 9 9 8 13 17
14 13 13 14 14 16 24 26 23 14 15 15 13 14 15 17 26 29 20 19 20 15 17 24 23 21 22 24 16 8 10 9 9 9 9 9 8 8 7 9 5 8 10
13 11 14 13 18 15 23 26 23 11 12 10 14 13 20 22 27 24 15 10 9 7 9 9 10 12 14 19 27 17 10 9 8 7 9 8 8 6 5 5 4 7 8
Wind_Direction
48 44 35 29 23 8 3 357 350 348 340 339 334 330 322 319 317 311 319 170 184 302 305 306 307 305 294 285 283 260 246 242 242 243 247 239 215 207 198 191 191 193 188
50 34 33 29 19 11 360 357 347 350 336 334 331 323 319 315 309 309 302 301 208 234 273 293 296 296 292 285 278 278 253 241 238 242 243 237 228 216 206 195 198 197 198
43 47 35 28 13 10 359 358 350 343 337 332 324 323 320 315 307 299 296 300 300 253 231 260 285 288 285 281 277 270 277 245 238 233 237 236 235 226 211 204 200 202 202
39 42 35 29 6 5 352 352 345 338 333 326 322 318 313 310 303 302 297 291 284 289 300 267 264 277 291 281 273 269 265 263 240 235 229 231 234 239 215 209 204 202 204
25 36 19 3 8 353 343 344 337 334 323 320 310 312 310 300 296 297 295 290 282 264 261 294 224 250 271 277 280 274 268 264 255 233 232 228 222 227 225 210 210 204 204
12 351 341 349 350 339 337 335 327 322 316 312 312 310 298 303 291 282 281 291 294 290 276 265 284 289 250 242 277 286 279 269 262 250 226 225 223 222 228 215 211 213 204
268 301 318 326 335 326 326 318 318 318 315 316 307 305 307 290 275 291 292 301 300 291 273 255 248 259 278 245 241 266 278 282 273 264 241 231 225 220 224 222 214 212 213
271 290 311 318 311 315 310 312 315 308 305 306 309 309 300 314 272 342 328 315 300 291 283 271 273 273 273 278 282 283 241 274 284 280 274 245 233 226 220 223 218 215 214
266 278 296 300 306 307 302 304 298 299 294 297 295 287 305 294 321 302 296 300 304 299 284 279 283 283 284 280 283 266 229 240 267 286 285 276 252 232 227 219 222 216 214
266 279 288 294 298 297 293 296 294 296 297 288 287 279 274 280 288 288 277 286 294 291 293 292 287 277 279 277 276 272 270 221 246 275 286 285 274 259 232 226 220 220 214
260 279 289 294 292 294 294 296 294 288 285 285 281 283 280 278 280 282 283 276 271 271 273 287 291 288 276 277 282 288 284 277 243 254 271 278 279 272 256 231 226 222 214
287 286 288 293 295 294 292 294 292 286 283 280 280 277 273 272 274 280 282 283 282 280 285 279 273 273 277 281 279 282 288 286 274 269 268 273 273 272 266 259 235 225 222
294 296 301 300 296 292 288 283 280 278 279 276 277 276 274 274 277 277 279 281 280 277 273 275 279 281 280 274 271 276 279 277 273 262 260 264 268 266 267 261 258 240 226
295 301 297 294 293 294 292 288 283 279 277 276 275 273 273 269 270 271 273 281 282 280 272 275 267 267 268 267 256 270 284 284 279 260 250 257 258 262 264 264 258 257 238
297 299 300 293 293 292 290 289 284 281 280 280 278 278 277 275 269 268 268 274 282 287 280 285 292 298 296 282 267 263 268 263 257 256 247 245 246 253 257 260 260 258 250
295 295 293 292 293 292 290 287 283 279 280 276 274 275 277 278 281 281 282 278 281 286 285 284 288 297 297 289 279 271 270 277 287 285 266 237 232 246 255 255 260 260 255
296 295 294 293 291 291 290 288 285 284 279 278 278 280 280 280 273 267 263 257 251 249 262 270 266 276 285 292 291 273 266 261 258 268 259 244 236 240 251 256 256 256 254
300 298 298 296 294 291 291 290 288 284 283 281 276 271 270 268 261 253 250 250 247 245 255 264 259 258 259 277 284 289 280 271 268 245 252 239 234 227 237 248 253 250 246
302 302 300 297 296 295 293 288 290 290 285 281 281 275 268 264 267 263 255 251 249 249 251 256 258 252 256 256 268 278 280 276 269 274 278 272 262 255 244 243 247 243 237
302 301 301 299 295 292 294 293 286 280 280 279 273 269 269 264 258 256 256 256 249 246 250 251 250 249 246 248 250 256 266 266 260 254 253 251 240 237 238 244 242 239 232
301 300 300 296 308 312 299 290 285 282 279 277 273 267 263 257 259 256 248 245 248 244 240 241 243 239 238 237 236 235 245 253 263 269 247 241 244 232 240 239 233 226 222
301 299 299 310 302 289 289 290 289 285 280 274 275 276 276 278 273 274 270 268 259 233 238 235 232 231 227 224 225 231 247 255 251 226 261 265 243 249 228 223 207 214 211
304 302 312 298 291 288 289 293 292 289 289 282 280 282 282 279 279 280 275 276 274 272 267 225 229 222 234 228 211 227 237 247 257 272 269 267 264 253 245 236 211 205 206
309 321 305 297 298 295 298 297 298 297 293 290 287 292 291 291 290 286 274 264 256 251 255 265 239 232 242 254 229 229 251 255 248 253 271 262 259 253 247 239 215 200 194
311 301 302 300 302 300 300 301 301 298 291 293 298 294 307 302 290 288 285 272 243 234 238 251 252 243 222 216 218 236 243 240 249 242 239 247 249 261 257 236 219 198 202
302 298 295 301 297 297 295 299 298 300 301 300 301 297 301 308 296 306 311 312 244 191 206 220 240 245 237 218 214 214 224 228 228 239 233 230 236 237 247 231 215 222 212